Afton Municipal Airport, WY

8:01 PM MST on December 15, 2019 (GMT -0700)
Afton Municipal

Weather History for KAFO - October, 2019

Change the Weather History Date:

Thursday, October 31, 2019

  Actual Average Record
Temperature  
Mean Temperature 12 °F -  
Max Temperature 28 °F 48 °F 64 °F (2014)
Min Temperature -4 °F 22 °F 14 °F (2018)
Degree Days  
Heating Degree Days 53    
Moisture  
Dew Point 5 °F    
Average Humidity 73    
Maximum Humidity 86    
Minimum Humidity 43    
Precipitation  
Precipitation 0.00 in - - ()
Sea Level Pressure  
Sea Level Pressure 30.35 in    
Wind  
Wind Speed 1 mph ()    
Max Wind Speed 5 mph    
Max Gust Speed -    
Visibility 10.0 miles    
Events      
Averages and records for this station are not official NWS values.
T = Trace of Precipitation, MM = Missing Value Source: Averaged Metar Reports

Daily Weather History Graph

Daily Weather History Graph

Search for Another Location

Airport or City:

Astronomy

Oct. 31, 2019 Rise Set
Actual Time 7:56 AM MDT 6:17 PM MDT
Civil Twilight 7:26 AM MDT 6:47 PM MDT
Nautical Twilight 6:53 AM MDT 7:20 PM MDT
Astronomical Twilight 6:20 AM MDT 7:53 PM MDT
Moon 11:52 AM MDT (10/31) 9:13 PM MDT (10/31)
Length of Visible Light 11h 20m
Length of Day
10h 21m
Waxing Crescent, 16% of the Moon is Illuminated
Oct 31
Waxing Crescent
Nov 4
First Quarter
Nov 12
Full
Nov 19
Last Quarter
Nov 26
New

Hourly Weather History & Observations

Time (MDT) Temp. Windchill Dew Point Humidity Pressure Visibility Wind Dir Wind Speed Gust Speed Precip Events Conditions
12:15 AM 1.4 °F -8.3 °F -4.0 °F 78% 30.44 in 10.0 mi South 4.6 mph - N/A   Clear
12:35 AM 1.4 °F -6.2 °F -4.0 °F 78% 30.44 in 10.0 mi SSE 3.5 mph - N/A   Clear
12:55 AM 1.4 °F -6.2 °F -4.0 °F 78% 30.44 in 10.0 mi South 3.5 mph - N/A   Clear
1:15 AM 1.4 °F - -2.2 °F 85% 30.44 in 10.0 mi Calm Calm - N/A   Clear
1:35 AM 3.2 °F - -2.2 °F 78% 30.44 in 10.0 mi Calm Calm - N/A   Clear
1:55 AM 3.2 °F - -2.2 °F 78% 30.44 in 10.0 mi Calm Calm - N/A   Clear
2:15 AM 3.2 °F - -2.2 °F 78% 30.44 in 10.0 mi Calm Calm - N/A   Clear
2:35 AM 1.4 °F - -4.0 °F 78% 30.44 in 10.0 mi Calm Calm - N/A   Clear
2:55 AM 1.4 °F - -4.0 °F 78% 30.43 in 10.0 mi Calm Calm - N/A   Clear
3:15 AM -0.4 °F - -4.0 °F 85% 30.43 in 10.0 mi Calm Calm - N/A   Clear
3:35 AM 1.4 °F - -4.0 °F 78% 30.42 in 10.0 mi Calm Calm - N/A   Clear
3:55 AM 1.4 °F - -2.2 °F 85% 30.43 in 10.0 mi Calm Calm - N/A   Clear
4:15 AM 1.4 °F - -4.0 °F 78% 30.43 in 10.0 mi Calm Calm - N/A   Clear
4:35 AM -4.0 °F - -7.6 °F 85% 30.43 in 10.0 mi Calm Calm - N/A   Clear
4:55 AM -2.2 °F -12.5 °F -5.8 °F 85% 30.43 in 10.0 mi South 4.6 mph - N/A   Clear
5:15 AM -0.4 °F - -4.0 °F 85% 30.43 in 10.0 mi Calm Calm - N/A   Clear
5:35 AM 1.4 °F - -4.0 °F 78% 30.43 in 10.0 mi Calm Calm - N/A   Clear
5:55 AM -0.4 °F - -4.0 °F 85% 30.42 in 10.0 mi Calm Calm - N/A   Clear
6:15 AM -2.2 °F - -5.8 °F 85% 30.42 in 10.0 mi Calm Calm - N/A   Clear
6:35 AM -0.4 °F - -4.0 °F 85% 30.42 in 10.0 mi Calm Calm - N/A   Clear
6:55 AM 1.4 °F - -2.2 °F 85% 30.42 in 10.0 mi Calm Calm - N/A   Clear
7:15 AM -4.0 °F - -7.6 °F 85% 30.42 in 10.0 mi Calm Calm - N/A   Clear
7:35 AM -4.0 °F - -7.6 °F 85% 30.42 in 10.0 mi Calm Calm - N/A   Clear
7:55 AM -2.2 °F - -5.8 °F 85% 30.42 in 10.0 mi Calm Calm - N/A   Clear
8:15 AM -0.4 °F - -5.8 °F 78% 30.42 in 10.0 mi Calm Calm - N/A   Clear
8:35 AM -0.4 °F - -5.8 °F 78% 30.42 in 7.0 mi Calm Calm - N/A   Clear
8:55 AM 1.4 °F - -2.2 °F 85% 30.42 in 10.0 mi Calm Calm - N/A   Clear
9:15 AM 3.2 °F - -0.4 °F 85% 30.42 in 10.0 mi Calm Calm - N/A   Clear
9:35 AM 5.0 °F - 1.4 °F 85% 30.42 in 10.0 mi North - - N/A   Clear
9:55 AM 6.8 °F - 1.4 °F 79% 30.42 in 10.0 mi Calm Calm - N/A   Clear
10:15 AM 8.6 °F - 1.4 °F 73% 30.41 in 10.0 mi Calm Calm - N/A   Clear
10:35 AM 10.4 °F - 1.4 °F 67% 30.41 in 10.0 mi Calm Calm - N/A   Clear
10:55 AM 10.4 °F - 3.2 °F 73% 30.40 in 10.0 mi North - - N/A   Clear
11:35 AM 14.0 °F - 5.0 °F 67% 30.39 in 10.0 mi Calm Calm - N/A   Clear
11:55 AM 14.0 °F - 5.0 °F 67% 30.39 in 10.0 mi Calm Calm - N/A   Clear
12:15 PM 17.6 °F - 5.0 °F 58% 30.37 in 10.0 mi Calm Calm - N/A   Clear
12:35 PM 19.4 °F - 6.8 °F 58% 30.36 in 10.0 mi Calm Calm - N/A   Clear
12:55 PM 19.4 °F 14.3 °F 8.6 °F 63% 30.35 in 10.0 mi North 3.5 mph - N/A   Clear
1:15 PM 21.2 °F 16.4 °F 8.6 °F 58% 30.34 in 10.0 mi NNW 3.5 mph - N/A   Clear
1:35 PM 24.8 °F - 10.4 °F 54% 30.32 in 10.0 mi Calm Calm - N/A   Clear
1:55 PM 23.0 °F - 10.4 °F 59% 30.31 in 10.0 mi Calm Calm - N/A   Clear
2:15 PM 23.0 °F - 8.6 °F 54% 30.29 in 10.0 mi Calm Calm - N/A   Clear
2:35 PM 26.6 °F - 10.4 °F 51% 30.29 in 10.0 mi Calm Calm - N/A   Clear
2:55 PM 26.6 °F - 8.6 °F 47% 30.29 in 10.0 mi Calm Calm - N/A   Clear
3:15 PM 28.4 °F - 8.6 °F 43% 30.28 in 10.0 mi North - - N/A   Clear
3:35 PM 28.4 °F - 8.6 °F 43% 30.27 in 10.0 mi Calm Calm - N/A   Clear
3:55 PM 26.6 °F - 8.6 °F 47% 30.27 in 10.0 mi Calm Calm - N/A   Clear
4:35 PM 28.4 °F - 10.4 °F 47% 30.26 in 10.0 mi Calm Calm - N/A   Clear
4:55 PM 26.6 °F - 12.2 °F 55% 30.26 in 10.0 mi Calm Calm - N/A   Clear
5:15 PM 26.6 °F - 12.2 °F 55% 30.26 in 10.0 mi Calm Calm - N/A   Mostly Cloudy
5:35 PM 26.6 °F - 14.0 °F 59% 30.25 in 10.0 mi Calm Calm - N/A   Overcast
5:55 PM 24.8 °F - 14.0 °F 64% 30.24 in 10.0 mi Calm Calm - N/A   Overcast
6:15 PM 26.6 °F - 14.0 °F 59% 30.23 in 10.0 mi Calm Calm - N/A   Overcast
6:35 PM 26.6 °F - 14.0 °F 59% 30.24 in 10.0 mi Calm Calm - N/A   Mostly Cloudy
6:55 PM 23.0 °F - 15.8 °F 74% 30.24 in 10.0 mi Calm Calm - N/A   Scattered Clouds
7:15 PM 23.0 °F - 17.6 °F 80% 30.24 in 10.0 mi North - - N/A   Mostly Cloudy
7:35 PM 23.0 °F - 17.6 °F 80% 30.25 in 10.0 mi Calm Calm - N/A   Scattered Clouds
7:55 PM 23.0 °F - 15.8 °F 74% 30.25 in 10.0 mi Calm Calm - N/A   Clear
8:15 PM 21.2 °F - 15.8 °F 80% 30.24 in 10.0 mi Calm Calm - N/A   Clear
8:35 PM 21.2 °F - 14.0 °F 74% 30.24 in 10.0 mi Calm Calm - N/A   Scattered Clouds
8:55 PM 19.4 °F 12.8 °F 12.2 °F 74% 30.25 in 10.0 mi NW 4.6 mph - N/A   Scattered Clouds
9:15 PM 19.4 °F - 14.0 °F 80% 30.25 in 10.0 mi Calm Calm - N/A   Mostly Cloudy
9:35 PM 17.6 °F - 12.2 °F 79% 30.25 in 10.0 mi Calm Calm - N/A   Mostly Cloudy
9:55 PM 17.6 °F - 12.2 °F 79% 30.25 in 10.0 mi North - - N/A   Overcast
10:15 PM 17.6 °F - 14.0 °F 86% 30.25 in 10.0 mi North - - N/A   Overcast
10:35 PM 17.6 °F - 14.0 °F 86% 30.26 in 10.0 mi Calm Calm - N/A   Overcast
10:55 PM 17.6 °F - 12.2 °F 79% 30.26 in 10.0 mi Calm Calm - N/A   Overcast
11:15 PM 17.6 °F - 14.0 °F 86% 30.26 in 10.0 mi Calm Calm - N/A   Overcast
11:35 PM 19.4 °F - 14.0 °F 80% 30.26 in 10.0 mi Calm Calm - N/A   Overcast
11:55 PM 19.4 °F - 14.0 °F 80% 30.26 in 10.0 mi Calm Calm - N/A   Overcast